Location: Azul
(36.7830°S, 59.8500°W)
Time: 04:24:02
(UTC-03:00)

ISS - Pass Details

Date: 27 April 2017
Orbit: 401 x 409 km, 51.6° (Epoch: 29 April)

Event Time Altitude Azimuth Distance (km) Brightness Sun altitude
Rises 20:27:04 0° 303° (WNW) 2,333 0.9 -26.3°
Reaches altitude 10° 20:29:10 10° 298° (WNW) 1,480 -0.2 -26.8°
Enters shadow 20:30:31 22° 290° (WNW) 961 -1.3 -27.0°
